Regional Weather Roundup
Issued by NWS

Home | Current Version | Previous Version | Graphics & Text | Print | Product List | Glossary On
Versions: 1 2 3 4 5 6 7 8 9 10 11 12 13 14 15 16 17 18 19 20 21 22 23 24 25 26 27 28 29 30 31 32 33 34 35 36 37 38 39 40 41 42 43 44 45 46 47 48 49 50
000
ASUS43 KMPX 241010
RWRMN
WEATHER ROUNDUP FOR MINNESOTA
NATIONAL WEATHER SERVICE TWIN CITIES/CHANHASSEN MN
400 AM CST WED DEC 24 2014


NOTE: "FAIR" INDICATES FEW OR NO CLOUDS BELOW 12,000 FEET WITH NO
SIGNIFICANT WEATHER AND/OR OBSTRUCTIONS TO VISIBILITY. N/A MEANS
CURRENT SKY AND/OR WEATHER CONDITIONS ARE NOT AVAILABLE.

MNZ060>063-068>070-241100-
   Twin Cities Metro

CITY           SKY/WX    TMP DP  RH WIND       PRES   REMARKS
TWIN CITIES    CLOUDY    35  31  85 N9        29.81S WCI  28
ST PAUL        CLOUDY    35  32  88 NW10      29.81F WCI  27
CRYSTAL        CLOUDY    36  32  85 NW9       29.80S
BLAINE         CLOUDY    36  36 100 NW9       29.80S
LAKEVILLE      CLOUDY    34  32  93 N9        29.79F WCI  26
EDEN PRAIRIE   CLOUDY    35  31  85 NW9       29.80S WCI  28
SOUTH ST PAUL  CLOUDY    36  33  88 N8        29.80S
LAKE ELMO      CLOUDY    34  34 100 N7        29.80F WCI  28
$$
MNZ001>005-007-008-013>017-022>024-027-028-241100-
   Northwest Minnesota

CITY           SKY/WX    TMP DP  RH WIND       PRES   REMARKS
BEMIDJI        CLOUDY    31  31  98 NW6       29.85F WCI  25
HALLOCK        CLOUDY    30  28  93 NW7       29.90F WCI  23
ROSEAU         CLOUDY    32  27  80 CALM      29.88F
WARROAD        CLOUDY    30  28  93 NW3       29.87F
THIEF RVR FALL CLOUDY    30  28  93 NW7       29.88F WCI  23
CROOKSTON      CLOUDY    30  28  93 N10       29.91F WCI  21
FOSSTON        CLOUDY    28  28 100 NW6       29.86F WCI  22
DETROIT LAKES  FOG       32  32 100 N7        29.88F VSB 3/4 WCI  26
MOORHEAD       CLOUDY    30  30 100 NW7       29.90F WCI  23
PARK RAPIDS    CLOUDY    33  30  88 N6        29.84F WCI  28
MAHNOMEN       CLOUDY    30  29  97 N5        29.86F WCI  25
$$
MNZ006-009>011-018-025>026-241100-
   North Central Minnesota

CITY           SKY/WX    TMP DP  RH WIND       PRES   REMARKS
BAUDETTE       CLOUDY    32  31  96 NW7       29.85F WCI  26
FLAG ISLAND    CLOUDY    32  30  93 NW7       29.86F WCI  26
INTL FALLS     CLOUDY    33  31  92 N5        29.83F WCI  29
WASKISH        CLOUDY    32  32 100 CALM      29.85F
BIG FORK       CLOUDY    34  30  86 NW3       29.82F FOG
LONGVILLE      CLOUDY    32  30  93 W3        29.83F FOG
GRAND RAPIDS   CLOUDY    32  30  93 N8        29.81F WCI  25
CRANE LAKE     CLOUDY    30  30 100 CALM      29.84F
ORR            CLOUDY    32  30  93 CALM      29.80F
COOK           CLOUDY    32  30  93 CALM      29.82F
WALKER         CLOUDY    31  31  97 CALM      29.84F
$$
MNZ012-019>021-037-241100-
   Northeast Minnesota

CITY           SKY/WX    TMP DP  RH WIND       PRES   REMARKS
DULUTH         CLOUDY    34  29  82 N9        29.78R WCI  27
ELY            CLOUDY    30  30 100 NW3       29.79F
HIBBING        CLOUDY    34  30  85 N8        29.81F WCI  27
EVELETH        CLOUDY    32  32 100 N6        29.81F WCI  26
DULUTH HARBOR  CLOUDY    36  32  87 N12       29.82R
TWO HARBORS    FAIR      36  30  80 CALM      29.77R
SILVER BAY       N/A    N/A N/A N/A MISG        N/A
GRAND MARAIS     N/A     36  30  79 E3        29.78F
G MARAIS ARPRT CLOUDY    28  27  93 N8        29.73F WCI  20
$$
MNZ029>031-032-039>041-046>048-054>057-064-241100-
   West Central Minnesota

CITY           SKY/WX    TMP DP  RH WIND       PRES   REMARKS
FERGUS FALLS   CLOUDY    30  28  93 N9G17     29.90F WCI  22
WHEATON        CLOUDY    28  28 100 NW8       29.92F WCI  20
MORRIS         CLOUDY    30  28  93 NW15      29.88F WCI  19
ALEXANDRIA     CLOUDY    31  29  92 NW8       29.86F WCI  23
ELBOW LAKE     CLOUDY    29  29  99 NW10      29.88F WCI  20
WADENA         FLURRIES  30  30 100 NW7       29.85F WCI  23
GLENWOOD       CLOUDY    30  30 100 NW10      29.87F WCI  21
APPLETON       CLOUDY    32  28  86 N14       29.90F WCI  22
BENSON         CLOUDY    30  28  93 N12G17    29.88F WCI  21
ORTONVILLE     CLOUDY    30  27  86 NW12      29.91F WCI  21
MADISON        FAIR      36  32  87 NW13      29.91F
WILLMAR        CLOUDY    34  30  86 NW14      29.88F FOG     WCI  24
$$
MNZ033>034-036-042>043-049>051-058-059-241100-
   Central Minnesota

CITY           SKY/WX    TMP DP  RH WIND       PRES   REMARKS
ST CLOUD       CLOUDY    36  31  82 NW9       29.83F
SAUK CENTRE    CLOUDY    32  31  97 NW10      29.86F FOG     WCI  23
PAYNESVILLE    CLOUDY    30  30 100 W9        29.86S WCI  22
AITKIN         CLOUDY    36  30  80 N7        29.81F
PINE RIVER     FLURRIES  32  32 100 NW7       29.88F WCI  26
BRAINERD       CLOUDY    32  30  92 N7        29.84F WCI  26
STAPLES        CLOUDY    30  30 100 NW7       29.85F WCI  23
LONG PRAIRIE   CLOUDY    32  30  93 NW9       29.85F WCI  24
LITTLE FALLS   CLOUDY    32  30  93 NW3       29.84F FOG
LITCHFIELD     CLOUDY    34  34 100 NW10      29.85S WCI  26
BUFFALO        CLOUDY    34  31  88 NW7       29.84S WCI  28
MAPLE LAKE     CLOUDY    34  32  91 N9        29.84S WCI  27
$$
MNZ037-044-045-052-053-241100-
   East Central Minnesota

CITY           SKY/WX    TMP DP  RH WIND       PRES   REMARKS
PRINCETON      CLOUDY    36  32  87 NW8       29.83R
MORA           CLOUDY    34  32  93 N6        29.83S WCI  29
CAMBRIDGE      CLOUDY    36  28  75 NW6       29.80S
RUSH CITY      CLOUDY    34  32  93 NW7       29.81S WCI  28
MOOSE LAKE     CLOUDY    34  32  93 N6        29.79S WCI  29
HINCKLEY       CLOUDY    34  32  93 CALM      29.81R
CLOQUET        CLOUDY    34  30  86 NW9       29.79S WCI  26
MCGREGOR       CLOUDY    32  32 100 NW8       29.82F WCI  25
$$
MNZ071>073-080-081-089-090-097-098-241100-
   Southwest Minnesota

CITY           SKY/WX    TMP DP  RH WIND       PRES   REMARKS
MONTEVIDEO     CLOUDY    30  30 100 N12       29.90F WCI  21
GRANITE FALLS  CLOUDY    32  30  94 NW16      29.90F WCI  21
CANBY          CLOUDY    31  29  92 N10       29.91F WCI  22
MARSHALL       CLOUDY    30  27  86 NW16      29.89F WCI  19
REDWOOD FALLS  CLOUDY    32  30  92 NW15G22   29.87S WCI  22
OLIVIA         CLOUDY    30  30 100 NW16G23   29.86S WCI  19
PIPESTONE      CLOUDY    30  28  93 N12G25    29.87F WCI  21
WINDOM         CLOUDY    30  30 100 NW17      29.85R FOG     WCI  18
WORTHINGTON    CLOUDY    30 -18  11 NW21      29.86S WCI  17
JACKSON        CLOUDY    32  30  93 NW20G25   29.84S WCI  20
TRACY          CLOUDY    32  31  97 NW17G24   29.87F WCI  20
SLAYTON        CLOUDY    29  29 100 NW15G24   29.86F FOG     WCI  18
$$
MNZ065>067-074>077-082>085-091>093-241100-
   South Central Minnesota

CITY           SKY/WX    TMP DP  RH WIND       PRES   REMARKS
MANKATO        CLOUDY    34  30  86 N12G18    29.81F WCI  25
NEW ULM        CLOUDY    32  32 100 NW12G20   29.84S WCI  23
FAIRMONT       CLOUDY    32  28  86 NW14      29.82S WCI  22
GLENCOE        CLOUDY    35  33  94 NW9       29.82F WCI  28
FARIBAULT      CLOUDY    34  32  93 NW6       29.80S WCI  29
OWATONNA       CLOUDY    34  30  86 NW7       29.79S WCI  28
WASECA         CLOUDY    34  32  93 NW12      29.81F WCI  25
ALBERT LEA     CLOUDY    34  34 100 N8        29.78S WCI  27
$$
MNZ078>079-086>088-094>096-241100-
   Southeast Minnesota

CITY           SKY/WX    TMP DP  RH WIND       PRES   REMARKS
ROCHESTER      CLOUDY    32  30  92 N13       29.75F WCI  22
RED WING       CLOUDY    36  32  87 NW5       29.78S
STANTON        CLOUDY    35  32  88 NW9       29.78S WCI  28
DODGE CENTER   CLOUDY    34  34 100 N10       29.76S WCI  26
WINONA         CLOUDY    36  32  87 N7        29.75F
AUSTIN         CLOUDY    34  30  86 N10       29.76F WCI  26
PRESTON        CLOUDY    32  29  90 N14       29.73F WCI  22
$$
ABBREVIATIONS USED IN REMARKS
   TC - TEMPERATURES IN CELSIUS
  WCI - WIND CHILL INDEX
   HX - HEAT INDEX
  VSB - VISIBILITY
$$


USA.gov is the U.S. government's official web portal to all federal, state and local government web resources and services.